TimeMST,TemperatureF,Dew PointF,Humidity,Sea Level PressureIn,VisibilityMPH,Wind Direction,Wind SpeedMPH,Gust SpeedMPH,PrecipitationIn,Events,Conditions,WindDirDegrees,DateUTC
12:53 AM,35.1,30.0,82,30.12,10.0,Calm,Calm,-,0.00,,Overcast,0,2012-12-17 07:53:00
2:53 AM,34.0,30.9,89,30.10,9.0,Calm,Calm,-,N/A,,Overcast,0,2012-12-17 09:53:00
3:34 AM,33.8,30.2,87,30.13,10.0,Calm,Calm,-,N/A,,Overcast,0,2012-12-17 10:34:00
3:53 AM,34.0,32.0,92,30.09,10.0,Calm,Calm,-,N/A,,Overcast,0,2012-12-17 10:53:00
4:53 AM,35.1,30.9,85,30.09,10.0,Calm,Calm,-,N/A,,Overcast,0,2012-12-17 11:53:00
5:53 AM,35.1,32.0,89,-9999,10.0,Calm,Calm,-,N/A,,Clear,0,2012-12-17 12:53:00
6:00 AM,35.6,32.0,87,-9999,10.0,Calm,Calm,-,N/A,,Overcast,0,2012-12-17 13:00:00
6:53 AM,35.1,30.9,85,-9999,10.0,Calm,Calm,-,N/A,,Overcast,0,2012-12-17 13:53:00
7:53 AM,35.1,32.0,89,30.10,10.0,Calm,Calm,-,N/A,,Mostly Cloudy,0,2012-12-17 14:53:00
8:53 AM,36.0,33.1,89,30.09,10.0,Calm,Calm,-,0.00,,Mostly Cloudy,0,2012-12-17 15:53:00
9:53 AM,37.9,33.1,83,30.09,10.0,Calm,Calm,-,N/A,,Mostly Cloudy,0,2012-12-17 16:53:00
10:53 AM,42.1,33.1,70,30.08,10.0,SSE,5.8,-,N/A,,Overcast,150,2012-12-17 17:53:00
11:53 AM,43.0,34.0,71,30.07,10.0,SSW,5.8,-,N/A,,Overcast,210,2012-12-17 18:53:00
12:53 PM,44.1,35.1,71,30.01,10.0,WSW,5.8,-,N/A,,Overcast,240,2012-12-17 19:53:00
1:53 PM,45.0,35.1,68,30.00,10.0,NNW,5.8,-,N/A,,Mostly Cloudy,330,2012-12-17 20:53:00
2:53 PM,45.0,35.1,68,30.02,10.0,Calm,Calm,-,N/A,,Mostly Cloudy,0,2012-12-17 21:53:00
5:53 PM,42.1,34.0,73,29.99,10.0,Calm,Calm,-,N/A,,Partly Cloudy,0,2012-12-18 00:53:00
6:53 PM,37.0,33.1,86,30.01,10.0,Calm,Calm,-,N/A,,Clear,0,2012-12-18 01:53:00
7:53 PM,33.1,30.9,92,30.02,9.0,Calm,Calm,-,0.00,Snow,Light Snow,0,2012-12-18 02:53:00
8:53 PM,32.0,30.0,92,30.01,10.0,South,4.6,-,0.00,,Clear,180,2012-12-18 03:53:00
9:53 PM,30.9,28.9,92,30.02,7.0,South,3.5,-,N/A,,Clear,170,2012-12-18 04:53:00
10:53 PM,30.9,28.9,92,30.00,8.0,South,3.5,-,N/A,,Clear,180,2012-12-18 05:53:00
11:53 PM,30.0,28.0,92,29.99,7.0,Calm,Calm,-,N/A,,Scattered Clouds,0,2012-12-18 06:53:00